Location: Marcé
(47.5801°N, 0.3280°W)
Time: 03:38:20
(UTC+01:00)

Vanguard 1 - Pass Details

Date: 05 December 2021
Orbit: 652 x 3830 km, 34.2° (Epoch: 21 January)

Event Time Altitude Azimuth Distance (km) Brightness Sun altitude
Rises 23:26:53 0° 214° (SW) 6,856 14.3 -59.6°
Enters shadow 23:29:05 - 210° (SSW) 6,527 14.1 -59.8°
Exits shadow 00:10:32 - 88° (E) 6,708 14.2 -63.5°
Sets 00:14:14 0° 83° (E) 7,255 14.4 -63.7°
